Regional Weather Roundup
Issued by NWS

Home | Current Version | Previous Version | Text Only | Print | Product List | Glossary Off
Versions: 1 2 3 4 5 6 7 8 9 10 11 12 13 14 15 16 17 18 19 20 21 22 23 24 25 26 27

000
ASUS45 KCYS 201810
RWRWY

WYOMING REGIONAL WEATHER ROUNDUP
NATIONAL WEATHER SERVICE CHEYENNE WY
1200 PM MDT SUN APR 20 2014

NOTE:  "FAIR" INDICATES FEW OR NO CLOUDS BELOW 12,000 FEET
WITH NO SIGNIFICANT WEATHER AND/OR OBSTRUCTIONS TO VISIBILITY.

WYZ001-201900-
YELLOWSTONE NATIONAL PARK

CITY           SKY/WX    TMP DP  RH WIND       PRES   REMARKS
LK YELLOWSTONE   N/A     45  20  36 W12       30.21R
6HR MIN TEMP:  23; 6HR MAX TEMP:  46;

W YELLOWSTONE  NOT AVBL

$$
WYZ002>013-054>058-071-098>099-201900-
NORTHERN WYOMING

CITY           SKY/WX    TMP DP  RH WIND       PRES   REMARKS
JACKSON        SUNNY     54  19  26 SW15G21   30.17R
CODY           SUNNY     57  30  35 N18       30.07R
GREYBULL       PTSUNNY   62  26  25 N3        30.02S
6HR MIN TEMP:  38; 6HR MAX TEMP:  62;

WORLAND        PTSUNNY   62  31  31 N9        30.01R
6HR MIN TEMP:  36; 6HR MAX TEMP:  62;

SHERIDAN         N/A     57  27  30 NW14G20     N/A
6HR MIN TEMP:  34; 6HR MAX TEMP:  58;

BUFFALO        CLOUDY    51  28  41 N22G33    30.09R
6HR MIN TEMP:  45; 6HR MAX TEMP:  61;

GILLETTE       CLOUDY    57  32  38 N15       30.06R
6HR MIN TEMP:  32; 6HR MAX TEMP:  66;

HULETT         FAIR      59  32  36 NW17G26   30.03
NEWCASTLE      FAIR      63  37  39 CALM      29.99

$$
WYZ014>020-022>026-101>103-201900-
CENTRAL WYOMING

CITY           SKY/WX    TMP DP  RH WIND       PRES   REMARKS
BIG PINEY      SUNNY     61  19  19 NW18G26   30.19S
6HR MIN TEMP:  24; 6HR MAX TEMP:  61;

PINEDALE       CLEAR     54  28  37 N9        30.20S
DUBOIS         FAIR      55  21  26 NW20G25   30.12R
LANDER         MOSUNNY   63  30  28 NE8       30.05F
6HR MIN TEMP:  40; 6HR MAX TEMP:  63;

RIVERTON       MOSUNNY   64  27  24 VRB6      30.07F
6HR MIN TEMP:  37; 6HR MAX TEMP:  64;

CASPER         MOSUNNY   65  29  25 W10G25    30.04F
6HR MIN TEMP:  36; 6HR MAX TEMP:  68;

DOUGLAS        SUNNY     70  29  21 W20G25    30.03R
6HR MIN TEMP:  35; 6HR MAX TEMP:  70;


$$
WYZ021-027>030-104>119-201900-
SOUTHERN WYOMING

CITY           SKY/WX    TMP DP  RH WIND       PRES   REMARKS
EVANSTON       MOSUNNY   59  30  33 NW15G22   30.22R
6HR MIN TEMP:  41; 6HR MAX TEMP:  60;

KEMMERER       CLEAR     55  23  28 NW12      30.22S
FORT BRIDGER   FAIR      61  31  31 W17G26    30.23S
ROCK SPRINGS   MOSUNNY   63  28  26 W14       30.17S
6HR MIN TEMP:  39; 6HR MAX TEMP:  64;

DIXON          MOCLDY    61  32  34 W6        30.19F
RAWLINS        MOSUNNY   61  27  27 W14G30    30.15S
6HR MIN TEMP:  42; 6HR MAX TEMP:  62;

SARATOGA       MOCLDY    61  32  33 W14G20    30.17S
LARAMIE        SUNNY     61  24  24 NW16G26   30.14F
6HR MIN TEMP:  33; 6HR MAX TEMP:  61;

CHEYENNE       MOSUNNY   65  26  23 NW15G25   30.09S
6HR MIN TEMP:  38; 6HR MAX TEMP:  66;

TORRINGTON     SUNNY     71  37  28 NW8       29.99F
6HR MIN TEMP:  38; 6HR MAX TEMP:  71;

PINE BLUFFS    FAIR      70  30  23 NW16G26   30.04F

$$



USA.gov is the U.S. government's official web portal to all federal, state and local government web resources and services.